QPF
0.05 0.05 0.06 0.06 0.06 0.06 0.04 0.03 0.03 0.03 0.04 0.04 0.05 0.06 0.06 0.06 0.06 0.05 0.04 0.04 0.05 0.06 0.07 0.06 0.05 0.05 0.07 0.06 0.06 0.06 0.05 0.04 0.04 0.04 0.04 0.03 0.02 0.02 0.01 0.01 0.01 0.01 0.01
0.04 0.03 0.04 0.06 0.07 0.07 0.07 0.04 0.03 0.03 0.04 0.04 0.04 0.05 0.05 0.05 0.05 0.04 0.03 0.03 0.04 0.05 0.07 0.07 0.06 0.06 0.05 0.06 0.05 0.04 0.05 0.06 0.05 0.05 0.04 0.02 0.02 0.02 0.02 0.02 0.01 0.01 0.02
0.04 0.03 0.03 0.06 0.10 0.10 0.09 0.08 0.06 0.04 0.04 0.04 0.04 0.04 0.04 0.04 0.03 0.02 0.02 0.03 0.03 0.04 0.05 0.04 0.04 0.06 0.06 0.05 0.04 0.04 0.05 0.06 0.06 0.07 0.05 0.02 0.02 0.02 0.02 0.02 0.01 0.01 0.02
0.06 0.05 0.05 0.06 0.08 0.12 0.11 0.08 0.09 0.06 0.05 0.05 0.05 0.04 0.03 0.03 0.02 0.01 0.01 0.02 0.03 0.02 0.02 0.02 0.02 0.03 0.05 0.04 0.03 0.04 0.04 0.04 0.04 0.04 0.06 0.04 0.02 0.02 0.02 0.01 0.01 0.01 0.02
0.06 0.06 0.06 0.07 0.07 0.07 0.06 0.06 0.07 0.07 0.05 0.04 0.04 0.03 0.03 0.02 0.01 0.01 0.01 0.02 0.02 0.02 0.02 0.02 0.02 0.03 0.04 0.04 0.03 0.02 0.03 0.03 0.03 0.02 0.04 0.04 0.03 0.03 0.03 0.02 0.01 0.01 0.02
0.06 0.05 0.05 0.07 0.08 0.06 0.04 0.04 0.05 0.06 0.06 0.05 0.04 0.02 0.01 0.01 0.01 0.01 0.02 0.03 0.02 0.02 0.02 0.02 0.02 0.03 0.03 0.04 0.04 0.03 0.03 0.03 0.02 0.02 0.02 0.02 0.02 0.02 0.03 0.03 0.02 0.02 0.02
0.06 0.06 0.05 0.05 0.05 0.05 0.04 0.03 0.03 0.03 0.04 0.04 0.02 0.02 0.01 0.01 0.02 0.02 0.02 0.02 0.02 0.01 0.02 0.02 0.02 0.03 0.04 0.04 0.04 0.04 0.04 0.04 0.03 0.02 0.02 0.02 0.02 0.02 0.02 0.03 0.04 0.02 0.02
0.04 0.04 0.04 0.03 0.03 0.03 0.03 0.02 0.01 0.02 0.03 0.04 0.03 0.03 0.02 0.02 0.03 0.03 0.02 0.01 0.01 0.02 0.03 0.03 0.04 0.04 0.04 0.03 0.03 0.03 0.03 0.03 0.03 0.04 0.02 0.02 0.02 0.02 0.02 0.03 0.03 0.02 0.02
0.02 0.02 0.02 0.02 0.02 0.02 0.03 0.02 0.01 0.02 0.02 0.03 0.03 0.04 0.03 0.02 0.03 0.02 0.02 0.01 0.01 0.02 0.03 0.04 0.04 0.03 0.04 0.03 0.03 0.02 0.02 0.02 0.02 0.03 0.03 0.02 0.02 0.02 0.02 0.02 0.03 0.03 0.02
0.02 0.01 0.01 0.02 0.03 0.03 0.03 0.02 0.01 0.02 0.03 0.03 0.04 0.04 0.03 0.03 0.03 0.03 0.03 0.02 0.01 0.02 0.02 0.03 0.03 0.03 0.03 0.03 0.02 0.02 0.02 0.02 0.03 0.03 0.03 0.02 0.02 0.02 0.02 0.02 0.02 0.02 0.02
0.02 0.01 0.01 0.02 0.02 0.01 0.02 0.03 0.03 0.03 0.04 0.04 0.05 0.05 0.05 0.04 0.04 0.04 0.05 0.04 0.03 0.03 0.03 0.04 0.03 0.03 0.04 0.04 0.03 0.03 0.03 0.03 0.04 0.03 0.02 0.02 0.02 0.02 0.02 0.02 0.02 0.02 0.02
0.02 0.01 0.01 0.01 0.01 0.02 0.03 0.04 0.05 0.04 0.03 0.03 0.05 0.05 0.04 0.04 0.05 0.06 0.06 0.05 0.06 0.06 0.06 0.06 0.04 0.03 0.04 0.05 0.05 0.04 0.05 0.05 0.04 0.03 0.02 0.02 0.02 0.01 0.02 0.03 0.02 0.01 0.01
0.03 0.03 0.02 0.01 0.01 0.02 0.03 0.04 0.03 0.03 0.02 0.02 0.02 0.02 0.02 0.02 0.03 0.04 0.04 0.03 0.04 0.06 0.05 0.06 0.06 0.05 0.04 0.04 0.05 0.06 0.06 0.06 0.05 0.04 0.03 0.02 0.01 0.01 0.02 0.02 0.02 0.02 0.02
0.04 0.03 0.03 0.02 0.01 0.00 0.02 0.06 0.06 0.02 0.02 0.02 0.01 0.01 0.01 0.01 0.02 0.02 0.02 0.02 0.02 0.02 0.03 0.04 0.04 0.04 0.03 0.02 0.03 0.04 0.07 0.07 0.06 0.06 0.04 0.03 0.02 0.02 0.02 0.02 0.02 0.02 0.01
0.04 0.03 0.02 0.02 0.02 0.01 0.01 0.04 0.07 0.05 0.03 0.03 0.02 0.01 0.01 0.01 0.02 0.04 0.03 0.02 0.01 0.01 0.02 0.02 0.03 0.03 0.04 0.04 0.04 0.03 0.04 0.04 0.04 0.03 0.03 0.03 0.03 0.02 0.01 0.01 0.02 0.01 0.01
0.05 0.04 0.03 0.02 0.02 0.01 0.01 0.02 0.04 0.05 0.05 0.05 0.04 0.02 0.01 0.01 0.01 0.02 0.03 0.03 0.02 0.01 0.01 0.01 0.02 0.02 0.03 0.04 0.05 0.04 0.02 0.02 0.02 0.02 0.02 0.03 0.02 0.02 0.01 0.01 0.01 0.01 0.01
0.04 0.04 0.04 0.03 0.02 0.02 0.01 0.01 0.02 0.03 0.05 0.05 0.04 0.03 0.02 0.02 0.01 0.01 0.02 0.02 0.04 0.03 0.02 0.01 0.01 0.01 0.02 0.03 0.03 0.03 0.02 0.02 0.02 0.03 0.03 0.03 0.02 0.02 0.01 0.01 0.01 0.01 0.01
0.03 0.04 0.03 0.03 0.03 0.02 0.02 0.02 0.02 0.03 0.04 0.04 0.03 0.02 0.02 0.01 0.01 0.01 0.01 0.01 0.01 0.03 0.04 0.04 0.03 0.02 0.02 0.02 0.02 0.02 0.02 0.02 0.01 0.01 0.03 0.04 0.05 0.03 0.01 0.01 0.01 0.01 0.01
0.02 0.03 0.03 0.03 0.03 0.02 0.02 0.02 0.02 0.02 0.03 0.04 0.03 0.03 0.02 0.01 0.02 0.01 0.01 0.01 0.01 0.01 0.02 0.04 0.06 0.05 0.03 0.03 0.03 0.02 0.01 0.01 0.01 0.01 0.02 0.03 0.04 0.05 0.03 0.02 0.02 0.02 0.02
0.01 0.02 0.02 0.03 0.03 0.03 0.02 0.02 0.02 0.02 0.02 0.03 0.03 0.03 0.02 0.02 0.02 0.01 0.01 0.01 0.01 0.01 0.02 0.02 0.03 0.04 0.05 0.05 0.03 0.02 0.02 0.02 0.02 0.01 0.02 0.03 0.04 0.05 0.05 0.03 0.02 0.02 0.02
0.01 0.01 0.01 0.01 0.01 0.02 0.03 0.02 0.02 0.02 0.02 0.02 0.03 0.03 0.03 0.03 0.03 0.02 0.03 0.03 0.02 0.02 0.02 0.02 0.03 0.04 0.05 0.05 0.05 0.04 0.03 0.02 0.02 0.01 0.02 0.03 0.04 0.04 0.04 0.03 0.02 0.02 0.02
0.01 0.01 0.01 0.01 0.01 0.01 0.02 0.02 0.02 0.01 0.01 0.01 0.01 0.02 0.03 0.03 0.04 0.04 0.03 0.03 0.02 0.03 0.03 0.03 0.03 0.04 0.04 0.04 0.04 0.03 0.03 0.02 0.02 0.02 0.02 0.02 0.03 0.04 0.05 0.05 0.03 0.03 0.02
0.01 0.02 0.02 0.02 0.01 0.01 0.01 0.01 0.02 0.01 0.01 0.01 0.01 0.01 0.02 0.02 0.02 0.02 0.02 0.02 0.01 0.01 0.02 0.03 0.04 0.04 0.04 0.04 0.03 0.03 0.03 0.03 0.02 0.02 0.02 0.02 0.03 0.04 0.05 0.05 0.04 0.03 0.03
0.01 0.02 0.03 0.03 0.02 0.02 0.02 0.02 0.01 0.02 0.02 0.02 0.02 0.02 0.01 0.01 0.01 0.01 0.01 0.01 0.01 0.01 0.01 0.01 0.02 0.03 0.03 0.03 0.04 0.04 0.04 0.03 0.03 0.03 0.03 0.02 0.02 0.02 0.04 0.04 0.05 0.04 0.03
0.01 0.01 0.02 0.02 0.02 0.02 0.02 0.02 0.02 0.02 0.02 0.02 0.02 0.02 0.02 0.01 0.01 0.01 0.01 0.01 0.01 0.00 0.00 0.00 0.00 0.01 0.02 0.03 0.03 0.04 0.04 0.03 0.03 0.02 0.02 0.01 0.01 0.01 0.02 0.04 0.04 0.05 0.05
0.00 0.01 0.01 0.02 0.02 0.02 0.02 0.01 0.01 0.01 0.01 0.01 0.01 0.01 0.01 0.01 0.01 0.01 0.01 0.01 0.01 0.01 0.00 0.01 0.01 0.01 0.01 0.01 0.01 0.02 0.02 0.02 0.02 0.01 0.01 0.01 0.01 0.01 0.01 0.03 0.03 0.04 0.04
MSLP
1009.07 1009.28 1009.46 1009.59 1009.69 1009.77 1009.86 1010.00 1010.22 1010.53 1010.94 1011.43 1011.95 1012.48 1012.97 1013.40 1013.75 1014.04 1014.29 1014.52 1014.76 1015.04 1015.34 1015.67 1016.01 1016.34 1016.63 1016.87 1017.07 1017.24 1017.39 1017.56 1017.75 1017.96 1018.19 1018.41 1018.58 1018.68 1018.69 1018.60 1018.42 1018.18 1017.92
1008.66 1008.82 1008.95 1009.04 1009.08 1009.09 1009.12 1009.19 1009.35 1009.60 1009.96 1010.41 1010.93 1011.47 1011.99 1012.46 1012.88 1013.23 1013.53 1013.81 1014.08 1014.36 1014.66 1014.99 1015.32 1015.64 1015.95 1016.22 1016.47 1016.70 1016.93 1017.17 1017.43 1017.71 1018.00 1018.29 1018.53 1018.71 1018.81 1018.81 1018.74 1018.61 1018.45
1008.41 1008.55 1008.64 1008.68 1008.65 1008.59 1008.52 1008.49 1008.54 1008.69 1008.96 1009.34 1009.80 1010.32 1010.85 1011.36 1011.82 1012.24 1012.61 1012.95 1013.27 1013.59 1013.92 1014.25 1014.60 1014.93 1015.26 1015.56 1015.85 1016.13 1016.41 1016.70 1017.02 1017.35 1017.69 1018.02 1018.32 1018.57 1018.75 1018.85 1018.88 1018.86 1018.81
1008.35 1008.47 1008.54 1008.52 1008.42 1008.25 1008.06 1007.90 1007.80 1007.80 1007.92 1008.18 1008.55 1009.01 1009.52 1010.04 1010.55 1011.04 1011.48 1011.89 1012.29 1012.67 1013.04 1013.42 1013.80 1014.16 1014.52 1014.86 1015.18 1015.50 1015.82 1016.14 1016.49 1016.85 1017.21 1017.58 1017.92 1018.22 1018.47 1018.66 1018.79 1018.87 1018.92
1008.47 1008.59 1008.62 1008.55 1008.36 1008.08 1007.74 1007.41 1007.12 1006.94 1006.89 1006.98 1007.23 1007.59 1008.04 1008.55 1009.08 1009.61 1010.12 1010.62 1011.09 1011.55 1012.00 1012.44 1012.87 1013.29 1013.69 1014.07 1014.43 1014.78 1015.12 1015.47 1015.82 1016.18 1016.56 1016.93 1017.30 1017.64 1017.95 1018.21 1018.44 1018.62 1018.76
1008.76 1008.87 1008.88 1008.74 1008.46 1008.05 1007.56 1007.04 1006.56 1006.17 1005.92 1005.83 1005.91 1006.14 1006.51 1006.96 1007.48 1008.03 1008.60 1009.16 1009.72 1010.26 1010.79 1011.30 1011.80 1012.29 1012.74 1013.17 1013.57 1013.95 1014.31 1014.66 1015.02 1015.37 1015.74 1016.11 1016.49 1016.86 1017.21 1017.54 1017.84 1018.10 1018.33
1009.19 1009.29 1009.26 1009.07 1008.69 1008.17 1007.53 1006.84 1006.17 1005.58 1005.13 1004.84 1004.75 1004.83 1005.08 1005.45 1005.93 1006.46 1007.04 1007.64 1008.25 1008.86 1009.46 1010.05 1010.62 1011.16 1011.68 1012.16 1012.60 1013.01 1013.39 1013.75 1014.10 1014.45 1014.80 1015.17 1015.54 1015.93 1016.31 1016.69 1017.05 1017.39 1017.69
1009.71 1009.80 1009.74 1009.49 1009.04 1008.41 1007.66 1006.84 1006.02 1005.26 1004.64 1004.18 1003.92 1003.85 1003.96 1004.23 1004.61 1005.10 1005.64 1006.23 1006.85 1007.48 1008.12 1008.75 1009.37 1009.96 1010.53 1011.06 1011.55 1012.00 1012.40 1012.78 1013.13 1013.48 1013.83 1014.18 1014.56 1014.95 1015.36 1015.77 1016.18 1016.58 1016.94
1010.27 1010.34 1010.25 1009.96 1009.46 1008.78 1007.96 1007.06 1006.15 1005.29 1004.54 1003.96 1003.56 1003.35 1003.33 1003.46 1003.73 1004.11 1004.57 1005.09 1005.66 1006.26 1006.88 1007.50 1008.13 1008.75 1009.35 1009.92 1010.45 1010.93 1011.37 1011.78 1012.16 1012.52 1012.87 1013.23 1013.61 1014.02 1014.44 1014.88 1015.33 1015.76 1016.17
1010.81 1010.86 1010.74 1010.43 1009.92 1009.23 1008.40 1007.49 1006.56 1005.67 1004.87 1004.21 1003.72 1003.40 1003.25 1003.25 1003.38 1003.62 1003.95 1004.34 1004.79 1005.29 1005.83 1006.39 1006.98 1007.58 1008.17 1008.76 1009.31 1009.84 1010.33 1010.78 1011.20 1011.59 1011.98 1012.36 1012.76 1013.18 1013.62 1014.08 1014.55 1015.02 1015.45
1011.28 1011.29 1011.15 1010.84 1010.35 1009.70 1008.92 1008.07 1007.19 1006.34 1005.56 1004.89 1004.36 1003.96 1003.71 1003.58 1003.56 1003.63 1003.78 1004.00 1004.28 1004.62 1005.01 1005.45 1005.94 1006.47 1007.02 1007.59 1008.17 1008.73 1009.26 1009.77 1010.25 1010.71 1011.15 1011.58 1012.01 1012.46 1012.92 1013.39 1013.88 1014.36 1014.82
1011.62 1011.60 1011.44 1011.15 1010.70 1010.13 1009.44 1008.70 1007.92 1007.17 1006.46 1005.83 1005.30 1004.87 1004.54 1004.30 1004.13 1004.03 1003.98 1003.99 1004.06 1004.19 1004.39 1004.66 1005.00 1005.41 1005.88 1006.41 1006.97 1007.56 1008.14 1008.72 1009.28 1009.82 1010.33 1010.83 1011.31 1011.80 1012.29 1012.78 1013.28 1013.76 1014.23
1011.82 1011.75 1011.58 1011.30 1010.92 1010.43 1009.87 1009.26 1008.62 1007.99 1007.39 1006.84 1006.34 1005.91 1005.52 1005.18 1004.88 1004.61 1004.38 1004.18 1004.02 1003.92 1003.89 1003.95 1004.11 1004.36 1004.72 1005.17 1005.70 1006.29 1006.92 1007.56 1008.21 1008.84 1009.45 1010.03 1010.59 1011.13 1011.66 1012.17 1012.68 1013.17 1013.64
1011.85 1011.73 1011.55 1011.30 1010.97 1010.58 1010.13 1009.65 1009.15 1008.65 1008.16 1007.69 1007.24 1006.81 1006.40 1005.99 1005.58 1005.17 1004.76 1004.36 1003.99 1003.66 1003.41 1003.25 1003.20 1003.28 1003.50 1003.86 1004.33 1004.90 1005.56 1006.26 1006.99 1007.71 1008.42 1009.11 1009.75 1010.36 1010.94 1011.48 1012.01 1012.50 1012.97
1011.73 1011.57 1011.37 1011.13 1010.85 1010.53 1010.18 1009.80 1009.41 1009.01 1008.61 1008.21 1007.81 1007.39 1006.97 1006.51 1006.02 1005.51 1004.96 1004.40 1003.85 1003.33 1002.87 1002.50 1002.26 1002.16 1002.22 1002.46 1002.85 1003.39 1004.04 1004.79 1005.58 1006.40 1007.21 1008.00 1008.74 1009.43 1010.07 1010.66 1011.21 1011.72 1012.20
1011.48 1011.29 1011.08 1010.85 1010.60 1010.33 1010.03 1009.72 1009.39 1009.05 1008.70 1008.34 1007.95 1007.55 1007.11 1006.63 1006.10 1005.52 1004.88 1004.22 1003.54 1002.87 1002.24 1001.71 1001.29 1001.02 1000.93 1001.04 1001.33 1001.81 1002.44 1003.19 1004.03 1004.92 1005.81 1006.69 1007.53 1008.31 1009.02 1009.67 1010.26 1010.80 1011.30
1011.15 1010.95 1010.74 1010.52 1010.28 1010.03 1009.76 1009.46 1009.15 1008.82 1008.47 1008.11 1007.72 1007.31 1006.87 1006.37 1005.83 1005.22 1004.56 1003.84 1003.09 1002.33 1001.60 1000.93 1000.37 999.96 999.72 999.70 999.88 1000.26 1000.84 1001.57 1002.42 1003.34 1004.30 1005.26 1006.18 1007.04 1007.83 1008.55 1009.20 1009.79 1010.32
1010.77 1010.58 1010.39 1010.19 1009.96 1009.71 1009.43 1009.12 1008.79 1008.43 1008.05 1007.66 1007.24 1006.81 1006.36 1005.87 1005.33 1004.74 1004.08 1003.37 1002.60 1001.81 1001.03 1000.28 999.62 999.09 998.72 998.56 998.62 998.90 999.38 1000.06 1000.88 1001.80 1002.79 1003.80 1004.78 1005.71 1006.58 1007.37 1008.09 1008.73 1009.31
1010.38 1010.23 1010.07 1009.89 1009.68 1009.43 1009.14 1008.80 1008.42 1008.01 1007.58 1007.13 1006.68 1006.22 1005.76 1005.28 1004.77 1004.22 1003.61 1002.94 1002.21 1001.44 1000.64 999.86 999.14 998.52 998.05 997.76 997.69 997.84 998.22 998.80 999.55 1000.44 1001.41 1002.43 1003.45 1004.43 1005.36 1006.22 1007.00 1007.71 1008.35
1010.00 1009.90 1009.79 1009.65 1009.47 1009.22 1008.92 1008.55 1008.12 1007.66 1007.17 1006.67 1006.18 1005.70 1005.23 1004.77 1004.30 1003.80 1003.27 1002.67 1002.01 1001.29 1000.53 999.75 999.00 998.33 997.77 997.38 997.18 997.20 997.45 997.91 998.56 999.36 1000.29 1001.28 1002.29 1003.30 1004.26 1005.17 1006.01 1006.78 1007.47
1009.62 1009.59 1009.54 1009.45 1009.29 1009.07 1008.76 1008.38 1007.92 1007.42 1006.89 1006.35 1005.83 1005.33 1004.87 1004.43 1004.01 1003.58 1003.12 1002.61 1002.04 1001.40 1000.69 999.96 999.22 998.52 997.90 997.42 997.12 997.01 997.13 997.45 997.98 998.68 999.51 1000.44 1001.42 1002.41 1003.38 1004.31 1005.18 1005.99 1006.73
1009.24 1009.26 1009.26 1009.22 1009.11 1008.92 1008.63 1008.25 1007.79 1007.27 1006.72 1006.17 1005.63 1005.14 1004.69 1004.28 1003.91 1003.54 1003.16 1002.75 1002.26 1001.71 1001.09 1000.41 999.71 999.01 998.38 997.84 997.46 997.25 997.24 997.44 997.84 998.41 999.14 999.97 1000.88 1001.82 1002.76 1003.68 1004.55 1005.37 1006.13
1008.83 1008.88 1008.92 1008.92 1008.85 1008.69 1008.44 1008.09 1007.65 1007.15 1006.61 1006.06 1005.54 1005.06 1004.63 1004.25 1003.92 1003.62 1003.31 1002.97 1002.58 1002.12 1001.59 1000.99 1000.35 999.70 999.08 998.53 998.11 997.84 997.74 997.83 998.11 998.56 999.17 999.89 1000.71 1001.56 1002.44 1003.31 1004.15 1004.95 1005.69
1008.38 1008.43 1008.48 1008.50 1008.46 1008.34 1008.12 1007.81 1007.42 1006.95 1006.45 1005.94 1005.44 1004.98 1004.58 1004.24 1003.95 1003.69 1003.44 1003.17 1002.86 1002.49 1002.05 1001.55 1000.99 1000.42 999.86 999.35 998.93 998.64 998.50 998.52 998.71 999.07 999.56 1000.18 1000.88 1001.65 1002.44 1003.23 1004.01 1004.75 1005.44
1007.89 1007.90 1007.93 1007.94 1007.92 1007.82 1007.64 1007.38 1007.03 1006.62 1006.17 1005.70 1005.25 1004.83 1004.46 1004.14 1003.88 1003.66 1003.45 1003.24 1002.99 1002.71 1002.36 1001.96 1001.52 1001.05 1000.58 1000.15 999.80 999.54 999.40 999.41 999.55 999.84 1000.25 1000.77 1001.37 1002.03 1002.72 1003.42 1004.11 1004.77 1005.39
1007.36 1007.31 1007.30 1007.28 1007.24 1007.16 1007.01 1006.78 1006.49 1006.14 1005.74 1005.33 1004.92 1004.54 1004.20 1003.91 1003.67 1003.47 1003.29 1003.12 1002.93 1002.72 1002.47 1002.18 1001.86 1001.51 1001.17 1000.86 1000.61 1000.43 1000.35 1000.38 1000.52 1000.78 1001.14 1001.59 1002.10 1002.66 1003.25 1003.85 1004.44 1005.00 1005.53
Thickness
5700 5699 5698 5697 5696 5695 5694 5693 5693 5692 5691 5691 5689 5688 5687 5686 5684 5682 5680 5679 5677 5676 5675 5673 5673 5672 5670 5669 5668 5667 5665 5663 5662 5665 5666 5667 5667 5667 5667 5667 5667 5668 5669
5697 5695 5692 5690 5689 5688 5688 5688 5688 5687 5687 5686 5685 5683 5682 5680 5679 5677 5676 5675 5673 5672 5671 5669 5668 5667 5666 5665 5663 5663 5662 5660 5659 5660 5661 5661 5662 5663 5663 5663 5663 5663 5663
5692 5690 5687 5684 5683 5682 5682 5682 5682 5681 5681 5680 5680 5678 5677 5675 5673 5672 5671 5669 5668 5667 5666 5665 5664 5663 5661 5660 5659 5658 5657 5657 5656 5655 5656 5656 5657 5657 5657 5657 5657 5657 5658
5687 5684 5682 5679 5678 5678 5677 5677 5676 5676 5676 5675 5675 5673 5672 5670 5669 5667 5666 5664 5662 5662 5661 5660 5660 5659 5657 5656 5655 5654 5653 5652 5651 5651 5651 5651 5651 5651 5650 5650 5650 5651 5651
5682 5680 5678 5675 5674 5673 5673 5672 5672 5671 5671 5670 5670 5668 5667 5666 5665 5663 5661 5659 5657 5656 5656 5655 5655 5654 5653 5651 5651 5649 5649 5647 5646 5645 5645 5645 5644 5644 5644 5644 5644 5644 5645
5677 5675 5673 5671 5669 5668 5667 5667 5666 5665 5665 5664 5663 5663 5662 5662 5660 5658 5656 5654 5653 5652 5651 5650 5650 5649 5648 5647 5646 5645 5645 5643 5642 5640 5639 5638 5639 5638 5638 5638 5638 5637 5638
5672 5670 5668 5665 5663 5662 5661 5660 5660 5659 5658 5658 5657 5657 5656 5656 5655 5653 5651 5649 5648 5647 5646 5645 5644 5644 5642 5641 5640 5639 5639 5639 5639 5637 5636 5635 5634 5634 5633 5632 5632 5632 5633
5666 5664 5662 5659 5657 5656 5655 5655 5654 5654 5653 5652 5652 5652 5651 5650 5649 5647 5646 5644 5643 5642 5641 5639 5638 5637 5636 5635 5634 5633 5633 5633 5633 5633 5632 5632 5631 5630 5629 5628 5627 5626 5626
5661 5659 5657 5654 5652 5651 5650 5650 5649 5648 5647 5647 5647 5646 5645 5644 5642 5641 5640 5638 5637 5636 5635 5634 5632 5631 5630 5629 5628 5627 5627 5627 5627 5628 5627 5627 5626 5625 5623 5622 5621 5620 5621
5655 5654 5652 5650 5648 5647 5646 5644 5643 5642 5641 5641 5640 5639 5639 5637 5636 5635 5634 5632 5630 5630 5628 5627 5627 5625 5624 5623 5622 5622 5621 5620 5620 5621 5620 5620 5619 5619 5618 5618 5617 5615 5615
5649 5647 5646 5645 5644 5643 5641 5639 5638 5637 5636 5635 5634 5634 5632 5631 5630 5629 5628 5626 5624 5623 5622 5621 5621 5619 5619 5618 5617 5616 5616 5615 5614 5613 5613 5613 5613 5613 5613 5612 5612 5611 5610
5643 5641 5640 5639 5639 5638 5635 5633 5632 5631 5630 5629 5628 5627 5626 5625 5624 5622 5621 5620 5618 5617 5616 5615 5615 5613 5613 5612 5611 5610 5609 5608 5608 5607 5607 5607 5607 5608 5608 5607 5607 5606 5606
5636 5635 5634 5633 5632 5631 5630 5628 5626 5625 5624 5623 5622 5621 5620 5619 5618 5616 5615 5613 5612 5611 5610 5609 5608 5608 5607 5607 5606 5605 5604 5603 5603 5603 5602 5602 5602 5602 5602 5602 5601 5601 5600
5630 5628 5628 5627 5626 5625 5624 5623 5621 5620 5619 5618 5617 5615 5614 5613 5612 5610 5609 5607 5606 5604 5603 5602 5602 5602 5602 5601 5600 5600 5599 5598 5598 5598 5597 5597 5596 5596 5596 5596 5596 5595 5595
5623 5622 5622 5621 5620 5619 5618 5617 5616 5616 5616 5615 5614 5612 5610 5609 5607 5605 5603 5602 5600 5598 5597 5596 5596 5596 5596 5596 5595 5595 5594 5593 5592 5592 5592 5592 5592 5592 5592 5591 5590 5590 5589
5617 5616 5616 5615 5615 5613 5612 5611 5611 5611 5611 5610 5609 5608 5607 5605 5602 5600 5598 5596 5594 5593 5591 5591 5591 5591 5591 5590 5590 5590 5589 5589 5588 5588 5588 5587 5587 5587 5587 5586 5585 5585 5584
5611 5610 5609 5609 5609 5608 5607 5606 5605 5604 5604 5604 5603 5601 5600 5599 5596 5594 5592 5590 5588 5587 5587 5586 5586 5586 5585 5586 5586 5585 5585 5585 5584 5583 5583 5583 5583 5583 5582 5582 5581 5580 5579
5605 5604 5604 5604 5604 5603 5602 5601 5600 5599 5598 5597 5596 5594 5593 5592 5590 5588 5586 5585 5583 5582 5582 5581 5581 5581 5581 5581 5580 5580 5580 5579 5579 5579 5578 5578 5578 5578 5577 5577 5576 5575 5574
5599 5598 5598 5598 5598 5597 5596 5596 5595 5594 5593 5591 5590 5588 5587 5585 5583 5582 5580 5580 5579 5577 5577 5576 5576 5576 5576 5575 5575 5574 5574 5574 5574 5574 5574 5573 5573 5572 5572 5572 5571 5569 5568
5593 5593 5592 5591 5591 5591 5590 5589 5589 5588 5586 5585 5584 5583 5581 5579 5578 5577 5575 5574 5573 5572 5571 5571 5570 5570 5569 5569 5568 5568 5568 5568 5568 5568 5568 5568 5567 5567 5567 5566 5566 5565 5564
5586 5586 5586 5585 5585 5584 5583 5583 5582 5581 5580 5579 5577 5576 5574 5574 5573 5571 5569 5568 5567 5567 5566 5565 5564 5564 5563 5562 5562 5562 5562 5562 5562 5562 5562 5562 5562 5562 5562 5561 5561 5561 5560
5578 5578 5579 5578 5578 5577 5576 5576 5575 5574 5573 5572 5571 5569 5566 5566 5566 5565 5563 5562 5562 5561 5561 5560 5559 5558 5557 5556 5556 5557 5557 5557 5556 5556 5556 5556 5555 5556 5556 5556 5556 5555 5555
5571 5571 5571 5571 5570 5569 5569 5568 5568 5567 5566 5565 5564 5562 5561 5559 5559 5558 5557 5557 5556 5556 5555 5554 5553 5553 5552 5551 5550 5551 5551 5551 5551 5551 5550 5550 5550 5550 5550 5550 5551 5550 5550
5563 5563 5563 5563 5563 5563 5562 5562 5561 5561 5560 5559 5557 5556 5554 5553 5553 5552 5551 5551 5551 5550 5549 5548 5547 5547 5546 5545 5545 5545 5545 5545 5545 5545 5545 5545 5545 5545 5545 5545 5545 5545 5545
5555 5555 5555 5555 5555 5555 5555 5555 5555 5554 5553 5552 5551 5549 5548 5547 5546 5546 5545 5545 5545 5544 5543 5543 5542 5541 5541 5540 5539 5539 5539 5539 5539 5539 5539 5539 5539 5539 5540 5540 5539 5539 5539
5548 5548 5548 5548 5547 5548 5548 5548 5548 5547 5546 5545 5544 5543 5542 5541 5540 5540 5539 5539 5539 5538 5538 5537 5536 5536 5535 5535 5534 5534 5533 5533 5533 5533 5532 5533 5533 5534 5534 5534 5534 5533 5533